Regional Weather Roundup
Issued by NWS Kansas City/Pleasant Hill, MO

Home | Current Version | Previous Version | Graphics & Text | Print | Product List | Glossary Off
Versions: 1 2 3 4 5 6 7 8 9 10 11 12 13 14 15 16 17 18 19 20 21 22 23 24 25 26 27 28 29 30 31 32 33 34 35 36 37 38 39 40 41 42 43 44 45 46 47 48 49 50

422
ASUS43 KEAX 281910
RWREAX

WEATHER ROUNDUP FOR EASTERN KANSAS AND NORTHWEST MISSOURI
NATIONAL WEATHER SERVICE KANSAS CITY/PLEASANT HILL MO
200 PM CDT FRI APR 28 2017

KSZ040-057-103>105-MOZ028-029-037-043-282000-
...KANSAS CITY METROPOLITAN AREA...

CITY           SKY/WX    TMP DP  RH WIND       PRES   REMARKS
K.C. INTL      DRIZZLE   58  56  93 CALM      29.69S FOG
K.C. DOWNTOWN  CLOUDY    60  57  89 S12G17    29.69R
LEES SUMMIT    CLOUDY    60  57  89 S14       29.70R
OLATHE - IXD   CLOUDY    59  58  96 S8        29.69R
OLATHE - OJC   CLOUDY    57  57 100 S12       29.69S FOG
LAWRENCE       CLOUDY    62  59  90 SE7       29.68S

$$

MOZ001>008-011>017-020>025-030>033-038>040-044>046-053-054-282000-
...NORTHERN AND CENTRAL MISSOURI...

CITY           SKY/WX    TMP DP  RH WIND       PRES   REMARKS
ST. JOSEPH     LGT RAIN  47  47 100 NE10      29.73R
MOSBY          CLOUDY    61  55  82 CALM      29.70R
WHITEMAN AFB   CLOUDY    60  60 100 S7        29.69R
CLINTON        CLOUDY    59  57  94 SE8       29.70S
SEDALIA        CLOUDY    62  59  90 S9        29.71R
WARSAW         NOT AVBL
CHILLICOTHE      N/A     52  50  93 N7        29.73S
KIRKSVILLE     CLOUDY    50  31  48 NE12      29.73F HAZE

$$

MOZ041-047>049-056>058-063>065-088>090-097-282000-
...EASTERN AND SOUTHERN MISSOURI...

CITY           SKY/WX    TMP DP  RH WIND       PRES   REMARKS
ST. LOUIS INTL TSTM      56  53  90 N9        29.79R VSB 1
SPIRIT OF STL  TSTM      56  55  97 NE15G30   29.74R FOG
COLUMBIA       CLOUDY    59  56  89 SE15      29.72R
JEFFERSON CITY CLOUDY    61  56  83 SE13      29.73S
ROLLA          LGT RAIN  56  56 100 NE8       29.73F FOG
OSAGE BEACH    CLOUDY    57  57 100 E6        29.73S
SPRINGFIELD    CLOUDY    62  58  86 S15       29.69S
BRANSON        CLOUDY    61  59  94 S5        29.72S
JOPLIN         CLOUDY    67  62  84 SW8       29.68S
WEST PLAINS    LGT RAIN  61  60  97 S12       29.75S FOG

$$

IAZ060-094-KSZ022-034>040-054-083-096-NEZ052-066-093-282000-
...KANSAS...SOUTHEAST NEBRASKA AND IOWA...

CITY           SKY/WX    TMP DP  RH WIND       PRES   REMARKS
TOPEKA         CLOUDY    63  58  83 S7        29.67S
MANHATTAN      CLOUDY    64  55  72 VRB3      29.66R
EMPORIA        PTSUNNY   67  58  72 MISG      29.65F
CHANUTE        CLOUDY    64  58  80 S6        29.68R
WICHITA        MOSUNNY   71  51  49 VRB5      29.64F
OMAHA          LGT RAIN  41  36  82 NE9       29.82S
LINCOLN        LGT RAIN  41  39  93 NE14G24   29.81R FOG     WCI  33
FALLS CITY     CLOUDY    44  43  96 NE13G20   29.73S FOG
LAMONI         LGT RAIN  41  39  93 NE15G22   29.78R FOG     WCI  33
DES MOINES     LGT RAIN  40  37  89 NE20      29.81F WCI  30

$$





USA.gov is the U.S. government's official web portal to all federal, state and local government web resources and services.